Location: Cubitt Town
(51.4833°N, 0.0000°E)
Time: 07:24:00
(UTC+00:00)

Daily predictions for brighter satellites

Satellite Brightness Start Highest point End
(mag) Time Altitude Azimuth Time Altitude Azimuth Time Altitude Azimuth
Cosmos 909 Rocket 4.2 20:14:59 10° SSW 20:21:06 54° ESE 20:27:26 10° NE
ADEOS 3.8 20:27:29 10° S 20:32:41 74° WSW 20:37:56 10° NNW
Cosmos 1805 4.5 20:31:20 10° NNE 20:33:52 20° ENE 20:36:23 10° ESE
Cosmos 1725 Rocket 4.3 20:29:18 10° SSW 20:35:34 77° W 20:41:50 10° N
NOSS 3-3 (C) 3.8 20:31:06 10° SSW 20:36:16 62° SE 20:42:30 10° NE
Cosmos 2322 Rocket 2.7 20:34:43 10° NNW 20:40:16 52° NE 20:45:47 10° SE
USA 306 2.4 20:41:24 10° W 20:44:32 51° NNW 20:46:37 10° ENE
Cosmos 1602 Rocket 4.1 20:40:32 10° N 20:44:41 44° ENE 20:48:44 11° SE
Tsikada Rocket 4.2 20:38:54 10° NNW 20:45:05 76° W 20:51:12 10° S
Cosmos 2082 Rocket 2.5 20:40:24 10° SW 20:46:07 78° WNW 20:51:53 10° NNE
NOSS 3-4 (A) 3.9 20:40:59 10° NW 20:47:30 77° NE 20:55:06 11° SE
NOSS 3-4 (C) 3.9 20:41:37 10° NW 20:48:09 77° NE 20:55:45 11° SE
Cosmos 2016 Rocket 4.4 20:43:14 10° SSW 20:49:26 67° WNW 20:55:36 10° N
YAOGAN 11 4.2 20:47:35 10° NNE 20:52:01 62° ESE 20:56:26 10° S
CZ-4B R/B 2.9 20:49:58 12° SE 20:52:59 46° ENE 20:56:21 10° N
Cosmos 2151 2.9 20:50:53 10° N 20:55:01 75° ENE 20:59:05 10° SSE
Cosmos 2098 Rocket 3.9 20:53:24 10° SSE 20:57:31 32° E 21:01:11 10° NNE
ATLAS 2AS CENTAUR R/B 4.5 20:51:35 10° W 20:57:47 35° NNW 21:03:56 10° NE
CZ-4C R/B 3.5 20:54:46 10° W 20:59:09 41° NNW 21:04:48 10° NE
Cosmos 1626 Rocket 3.8 20:56:28 10° NNW 21:00:50 73° W 21:05:12 10° S
Cosmos 1782 4.3 20:59:46 10° SW 21:02:58 33° WNW 21:06:13 10° N
Ariane Rocket 3.2 20:59:02 12° SE 21:03:37 58° ENE 21:08:36 10° N
Cosmos 2278 3.8 21:01:46 10° NNW 21:07:32 84° WSW 21:12:37 13° SSE
Spot 2 Rocket 4.1 21:04:05 10° S 21:09:00 55° W 21:13:58 10° NNW
SL-16 R/B 2.5 21:05:54 10° NW 21:11:32 64° WSW 21:16:43 12° SSE
COSMOS 2428 4.3 21:07:09 10° NNW 21:11:53 26° NE 21:16:36 10° E
Meteor 1-5 Rocket 4.4 21:06:53 10° N 21:12:37 64° ENE 21:17:38 14° SSE
SPOT 3 Rocket 3.5 21:09:24 12° SSE 21:14:13 87° ENE 21:19:24 10° NNW
Cosmos 1763 Rocket 4.4 21:10:53 13° SSE 21:14:40 29° E 21:19:10 10° NE
USA 186 2.8 21:13:07 10° SSW 21:15:39 34° W 21:18:14 10° NNW
USA 290 3.1 21:18:07 20° SSE 21:19:34 28° ESE 21:22:19 10° NE
CZ-4 R/B 4.3 21:19:48 10° W 21:20:02 10° W 21:20:16 10° W
Cosmos 1606 Rocket 4.1 21:17:15 15° SSE 21:20:24 41° E 21:24:27 10° NNE
Cosmos 990 Rocket 4.4 21:17:05 10° NNW 21:22:08 52° ENE 21:26:04 17° SE
Cosmos 1513 Rocket 4.4 21:16:10 10° S 21:22:22 77° E 21:28:29 10° NNE
Cosmos 1933 3.2 21:20:22 10° SSW 21:24:10 84° W 21:28:00 10° N
Cosmos 1464 Rocket 4.1 21:18:41 11° SSE 21:24:24 57° E 21:30:27 10° NNE
ISS -3.8 21:21:40 10° W 21:25:01 87° N 21:28:15 11° E
SL-08 R/B 4.4 21:20:47 10° N 21:25:26 48° WNW 21:29:58 10° SW
Cosmos 1461 2.6 21:22:10 10° SW 21:25:52 81° NW 21:29:34 10° NE
Helios 1B rocket 4.3 21:24:30 10° E 21:26:28 14° ENE 21:28:26 10° NNE
CZ-4B R/B 3.4 21:23:15 15° SSE 21:27:14 87° WSW 21:32:09 10° NNW
BREEZE-M DEB (TANK) 1.2 21:24:33 10° WSW 21:27:20 50° S 21:28:12 27° ESE
Okean 1 3.8 21:25:54 20° SSE 21:27:48 35° E 21:31:07 10° NNE
Cosmos 1726 Rocket 4.2 21:25:49 19° SE 21:28:06 34° E 21:31:47 10° NNE
COSMOS 2406 3.5 21:24:31 10° SW 21:30:16 74° WNW 21:36:02 10° NNE
Terra 4.1 21:28:13 10° SW 21:31:36 20° W 21:35:00 10° NW
Okean O Rocket 3.1 21:30:44 10° SSW 21:34:33 31° W 21:38:23 10° NNW
Cosmos 1536 4.2 21:32:11 10° NNE 21:35:11 23° ENE 21:36:59 16° ESE
Cosmos-2242 4.1 21:37:47 20° SE 21:39:31 27° E 21:42:59 10° NNE
Cosmos 1777 Rocket 4.1 21:34:18 10° NNW 21:39:31 71° WSW 21:43:21 18° SSE
Cosmos 1092 Rocket 4.5 21:35:09 10° N 21:41:06 47° ENE 21:45:21 19° SE
Cosmos 1437 Rocket 3.5 21:38:13 10° SSW 21:41:40 46° WNW 21:45:10 10° N
Cosmos 2333 Rocket 3.0 21:36:31 10° NW 21:41:54 44° WSW 21:46:30 14° S
Okean 1-7 Rocket 3.7 21:42:39 10° NNW 21:47:08 76° W 21:50:19 19° S
Cosmos 1833 4.4 21:44:13 13° S 21:49:10 51° ESE 21:54:37 10° NE
Cosmos 1503 Rocket 4.0 21:44:24 10° NNW 21:49:36 75° WSW 21:53:04 21° SSE
Cosmos 2360 Rocket 2.5 21:46:12 10° NW 21:51:48 61° WSW 21:55:44 20° S
CZ-2C R/B 2.4 21:52:45 28° SSW 21:53:56 51° W 21:56:39 10° NNW
Cosmos 1766 3.4 21:52:35 10° N 21:55:41 41° ENE 21:56:45 30° ESE
Cosmos 2322 4.4 21:50:39 10° NNW 21:56:09 46° NE 22:00:18 17° ESE
Cosmos 372 Rocket 4.4 21:57:17 10° NNW 22:02:18 52° ENE 22:05:24 22° SE
Cosmos 2034 Rocket 4.0 21:58:36 18° S 22:03:32 73° E 22:09:52 10° NNE
Cosmos 2221 4.3 22:03:18 15° ESE 22:04:23 17° E 22:07:03 10° NE
Cosmos 2219 Rocket 2.3 21:58:54 10° NNW 22:04:34 74° WSW 22:08:05 24° SSE
Cosmos 1354 Rocket 4.0 21:59:23 10° NNW 22:04:39 80° WSW 22:07:46 25° SSE
Cosmos 1271 Rocket 4.1 22:06:21 18° E 22:06:36 18° E 22:09:01 10° NE
Cosmos 1805 4.5 22:04:42 10° NNW 22:07:33 28° W 22:09:31 16° SW
Cosmos 1825 Rocket 4.1 22:06:52 10° NNW 22:11:06 52° W 22:13:51 20° SSW
USA 306 2.6 22:09:28 10° WNW 22:11:19 32° NNW 22:11:19 32° NNW
Cosmos 540 Rocket 3.4 22:07:44 17° SSW 22:11:39 71° ESE 22:16:47 10° NNE
Nadezhda 4 Rocket 4.4 22:09:19 10° NNW 22:15:18 57° W 22:20:00 17° SSW
Helios 1A 3.2 22:13:02 10° NNE 22:16:51 47° E 22:18:07 33° SSE
Cosmos 1953 Rocket 3.6 22:13:38 10° NNW 22:17:58 74° W 22:20:10 28° S
RESURS DK-1 2.9 22:14:58 10° NNW 22:18:51 49° NE 22:20:45 26° ESE
Aureole 1 Rocket 3.9 22:14:37 10° NNW 22:20:24 90° SSW 22:24:34 25° SSE
Cosmos 1707 1.7 22:23:33 63° SSE 22:23:53 75° E 22:26:43 10° NNE
Cosmos 2322 Rocket 3.3 22:19:03 10° NW 22:24:06 34° WSW 22:27:37 18° SSW
Cosmos 1634 Rocket 4.1 22:22:34 25° SSE 22:26:12 63° E 22:32:20 10° NNE
Cosmos 1937 Rocket 4.1 22:22:12 10° NNW 22:27:11 47° ENE 22:30:09 23° ESE
TSX-5 3.2 22:25:56 10° NNW 22:29:05 83° ENE 22:29:55 47° SE
Cosmos 2058 Rocket 2.9 22:30:59 32° S 22:32:55 78° E 22:37:16 10° NNE
Geosat 4.0 22:28:00 10° NE 22:32:58 59° ESE 22:35:38 27° S
Cosmos 468 Rocket 4.0 22:30:14 27° S 22:33:05 63° ESE 22:38:17 10° NNE
Cosmos 1076 Rocket 4.4 22:30:43 10° NNW 22:34:42 40° W 22:36:55 22° SSW
Cosmos 2026 Rocket 4.2 22:31:17 10° NNW 22:37:38 67° W 22:41:40 23° S
Meteor 2-9 Rocket 4.4 22:33:18 10° N 22:38:38 58° ENE 22:41:25 28° SE
Cosmos 44 3.7 22:33:22 10° NW 22:38:41 58° SW 22:41:01 31° S
CZ-2C R/B 4.3 22:39:09 11° ESE 22:42:50 23° ENE 22:46:53 10° N
Cosmos 2237 Rocket 3.1 22:37:38 10° NNW 22:43:03 42° NE 22:47:09 17° ESE
Cosmos 1980 4.4 22:41:53 10° NNW 22:47:22 47° NE 22:51:12 19° ESE
USA 234 4.2 22:43:23 10° ENE 22:48:40 25° SE 22:49:36 25° SE
Cosmos 1470 2.3 22:45:30 10° N 22:48:48 71° ENE 22:49:19 57° SE
ATLAS 2AS CENTAUR R/B 4.5 22:44:34 10° NW 22:50:32 31° N 22:56:27 10° ENE
ARIANE 5 R/B 2.8 22:52:41 35° SE 22:54:25 64° ENE 22:58:52 10° N
Cosmos 1763 Rocket 4.3 22:50:59 10° SW 22:56:07 51° WNW 23:01:17 10° NNE
ALOS 2 3.0 22:54:46 33° SE 22:56:28 56° ENE 23:00:47 10° N
COSMOS 2428 2.7 22:51:05 10° NNW 22:56:49 84° WSW 22:59:34 32° SSE
Cosmos 2227 Rocket 4.2 22:55:49 12° ESE 22:57:04 13° E 22:59:29 10° ENE
Helios 1B rocket 2.2 22:58:18 47° SSW 22:59:02 59° WSW 23:02:31 10° NNW
ISS -3.1 22:58:29 10° W 23:01:11 41° SW 23:01:11 41° SW
Cosmos 1898 Rocket 3.5 22:57:11 10° NNW 23:02:23 76° WSW 23:04:33 35° S
CZ-2C R/B 4.4 23:02:07 10° NNE 23:07:13 31° E 23:09:26 24° SE
Meteor 1-11 Rocket 3.9 23:01:52 10° N 23:07:32 66° ENE 23:10:10 32° SSE
Cosmos 1536 3.8 23:07:09 10° NNW 23:10:28 32° W 23:11:30 27° SW
CSL-04 DEB 4.5 23:10:19 44° SW 23:11:00 52° WSW 23:14:35 10° NNW
SAR-Lupe-2 3.8 23:10:57 46° ESE 23:11:27 52° ENE 23:14:43 10° N
Cosmos 1238 Rocket 4.3 23:14:04 23° ESE 23:15:00 25° E 23:18:36 10° NNE
PSLV R/B 4.0 23:12:01 10° NNE 23:16:12 48° E 23:17:16 39° SE
Cosmos-2242 4.2 23:14:02 19° SW 23:16:23 34° WNW 23:20:10 10° N
NOSS 8 (H) 4.0 23:16:36 10° NW 23:19:29 82° NE 23:19:32 81° ENE
NOSS 0 Rocket 4.0 23:21:55 10° NW 23:28:03 67° WSW 23:30:48 34° S
Meteor 1-27 Rocket 4.2 23:25:49 31° SSE 23:28:12 49° E 23:33:41 10° NNE
Cosmos 841 Rocket 3.4 23:27:23 33° SSW 23:29:47 89° ESE 23:35:04 10° NNE
Cosmos 2297 Rocket 2.5 23:27:59 35° SSE 23:29:53 49° ESE 23:35:19 10° NE
Cosmos 1842 3.9 23:29:26 30° W 23:30:03 34° WNW 23:32:59 10° N
Cosmos 1975 3.1 23:29:21 10° NNW 23:32:54 46° W 23:33:29 41° SW
Cosmos 2142 Rocket 4.5 23:30:57 31° SSW 23:34:12 84° W 23:40:27 10° N
Cosmos 2180 Rocket 4.5 23:32:27 31° SSW 23:35:40 86° W 23:42:04 10° N
Spot 4 4.1 23:36:12 37° SSW 23:37:48 55° W 23:42:31 10° NNW
Cosmos 2322 4.5 23:35:01 10° NW 23:40:15 39° WSW 23:42:12 30° SSW
Cosmos 1271 Rocket 3.7 23:39:41 28° WSW 23:40:36 33° WNW 23:43:43 10° N
Cosmos 2221 2.8 23:39:35 38° SW 23:40:57 58° WNW 23:45:06 10° N
Cosmos 1812 Rocket 3.6 23:39:58 43° SSW 23:41:21 78° W 23:45:48 10° N
ACS3 Solar Sail 3.2 23:38:26 10° NE 23:43:12 24° E 23:46:10 17° SE
MetOp-A 3.8 23:42:38 39° SSE 23:44:27 82° ENE 23:49:06 10° NNW
Helios 1B 4.4 23:42:56 10° NNE 23:47:13 90° SSW 23:48:25 47° SSW
Cosmos 2219 Rocket 4.3 23:44:44 10° WNW 23:47:31 14° W 23:49:46 11° WSW
NOSS 8 (E) 4.3 23:47:12 10° NW 23:49:44 60° WNW 23:49:44 60° WNW
RESURS DK-1 3.9 23:52:51 10° WNW 23:55:54 21° WSW 23:55:58 21° WSW
